Regional Weather Roundup
Issued by NWS

Home | Current Version | Previous Version | Text Only | Print | Product List | Glossary Off
Versions: 1 2 3 4 5 6 7 8 9 10 11 12 13 14 15 16 17 18 19 20 21 22 23 24 25 26 27 28

000
ASUS45 KCYS 231410
RWRWY

WYOMING REGIONAL WEATHER ROUNDUP
NATIONAL WEATHER SERVICE CHEYENNE WY
800 AM MDT SAT JUL 23 2016

NOTE:  "FAIR" INDICATES FEW OR NO CLOUDS BELOW 12,000 FEET
WITH NO SIGNIFICANT WEATHER AND/OR OBSTRUCTIONS TO VISIBILITY.

WYZ001-231500-
YELLOWSTONE NATIONAL PARK

CITY           SKY/WX    TMP DP  RH WIND       PRES   REMARKS
LK YELLOWSTONE   N/A     49  35  58 CALM      30.33S
W YELLOWSTONE  NOT AVBL

$$
WYZ002>013-054>058-071-098>099-231500-
NORTHERN WYOMING

CITY           SKY/WX    TMP DP  RH WIND       PRES   REMARKS
JACKSON        NOT AVBL
CODY           FAIR      64  43  45 CALM      30.13S
GREYBULL       FAIR      74  41  30 NW16      30.02R
WORLAND        FAIR      69  44  40 W8        30.07R
SHERIDAN       FAIR      71  42  35 NW7       30.06S
BUFFALO        FAIR      68  40  35 N14G23    30.10S
GILLETTE       FAIR      68  45  43 NW15      30.05R
HULETT         FAIR      70  50  49 NW10G17   30.04R
NEWCASTLE      FAIR      70  48  46 NW21G28   29.99S

$$
WYZ014>020-022>026-101>103-231500-
CENTRAL WYOMING

CITY           SKY/WX    TMP DP  RH WIND       PRES   REMARKS
BIG PINEY      FAIR      53  26  35 CALM      30.31R
PINEDALE       FAIR      48  37  66 NW5       30.32R
DUBOIS           N/A     55  19  24 W13       30.25R HAZE
LANDER         FAIR      62  42  47 E7        30.12R
RIVERTON       FAIR      70  34  26 NW8       30.14R
CASPER         FAIR      67  44  43 N16       30.14R
DOUGLAS          N/A    N/A N/A N/A MISG      30.09R

$$
WYZ021-027>030-104>119-231500-
SOUTHERN WYOMING

CITY           SKY/WX    TMP DP  RH WIND       PRES   REMARKS
EVANSTON       FAIR      62  34  35 CALM      30.33R
KEMMERER         N/A     57  32  38 N3        30.33R
FORT BRIDGER   SUNNY     66  30  26 W7        30.34R
ROCK SPRINGS   FAIR      65  36  34 SW6       30.28S
DIXON          FAIR      62  48  58 SE3       30.30S
RAWLINS        FAIR      70  42  36 W15G25    30.25R
SARATOGA       FAIR      68  43  40 S7        30.28R
LARAMIE        FAIR      69  43  38 SW18G24   30.26S
CHEYENNE       FAIR      78  43  28 W17       30.15S
TORRINGTON     FAIR      71  58  63 CALM      29.97R
PINE BLUFFS    FAIR      72  48  43 SW5       30.08S

$$




USA.gov is the U.S. government's official web portal to all federal, state and local government web resources and services.